TimeMST,TemperatureF,Dew PointF,Humidity,Sea Level PressureIn,VisibilityMPH,Wind Direction,Wind SpeedMPH,Gust SpeedMPH,PrecipitationIn,Events,Conditions,WindDirDegrees,DateUTC
12:53 AM,46.0,28.0,50,30.10,10.0,SE,11.5,-,N/A,,Mostly Cloudy,130,2012-12-04 07:53:00
1:53 AM,48.0,26.1,42,30.07,10.0,ESE,15.0,-,N/A,,Overcast,120,2012-12-04 08:53:00
2:53 AM,48.0,27.0,44,30.08,10.0,SE,11.5,-,N/A,,Overcast,140,2012-12-04 09:53:00
3:53 AM,46.9,32.0,56,30.11,10.0,SE,11.5,-,0.00,Rain,Light Rain,130,2012-12-04 10:53:00
4:28 AM,44.6,35.6,71,30.11,7.0,SE,17.3,-,0.02,Rain,Light Rain,130,2012-12-04 11:28:00
4:44 AM,44.6,37.4,76,30.12,10.0,SE,12.7,-,0.03,Rain,Light Rain,130,2012-12-04 11:44:00
4:53 AM,45.0,37.0,74,30.12,10.0,SE,16.1,-,0.03,Rain,Light Rain,130,2012-12-04 11:53:00
5:53 AM,43.0,37.0,80,30.13,10.0,ESE,20.7,-,0.04,Rain,Light Rain,110,2012-12-04 12:53:00
6:53 AM,44.1,36.0,73,30.12,10.0,ESE,19.6,27.6,0.00,,Overcast,120,2012-12-04 13:53:00
7:53 AM,46.0,37.0,71,30.12,10.0,ESE,19.6,26.5,N/A,,Overcast,120,2012-12-04 14:53:00
8:53 AM,48.0,37.0,66,30.12,10.0,ESE,16.1,25.3,N/A,,Overcast,120,2012-12-04 15:53:00
9:53 AM,48.9,37.0,64,30.10,10.0,ESE,20.7,24.2,N/A,,Overcast,120,2012-12-04 16:53:00
10:53 AM,50.0,37.0,61,30.12,10.0,ESE,19.6,-,N/A,,Overcast,120,2012-12-04 17:53:00
11:53 AM,52.0,37.0,57,30.09,10.0,ESE,17.3,27.6,N/A,,Mostly Cloudy,120,2012-12-04 18:53:00
12:53 PM,53.1,36.0,52,30.07,10.0,ESE,20.7,25.3,N/A,,Mostly Cloudy,120,2012-12-04 19:53:00
1:53 PM,55.0,37.0,51,30.05,10.0,SE,21.9,29.9,N/A,,Partly Cloudy,130,2012-12-04 20:53:00
2:53 PM,54.0,37.9,55,30.03,10.0,ESE,19.6,26.5,N/A,,Scattered Clouds,120,2012-12-04 21:53:00
3:53 PM,53.1,39.9,61,30.04,10.0,SE,18.4,-,0.00,Rain,Light Rain,130,2012-12-04 22:53:00
4:53 PM,50.0,44.1,80,30.07,9.0,SE,16.1,-,0.02,Rain,Light Rain,130,2012-12-04 23:53:00
5:53 PM,50.0,45.0,83,30.08,10.0,ESE,15.0,25.3,0.03,Rain,Light Rain,120,2012-12-05 00:53:00
6:53 PM,50.0,46.0,86,30.05,10.0,SE,18.4,-,0.03,Rain,Light Rain,130,2012-12-05 01:53:00
7:53 PM,51.1,46.0,83,30.05,10.0,ESE,16.1,-,0.02,Rain,Light Rain,120,2012-12-05 02:53:00
8:53 PM,50.0,48.0,93,30.05,10.0,ESE,13.8,-,0.03,Rain,Light Rain,120,2012-12-05 03:53:00
9:53 PM,50.0,46.0,86,30.04,10.0,ESE,15.0,-,0.02,Rain,Light Rain,120,2012-12-05 04:53:00
10:53 PM,51.1,46.0,83,30.02,10.0,ESE,16.1,-,0.01,,Overcast,120,2012-12-05 05:53:00
11:53 PM,52.0,44.1,74,30.00,10.0,ESE,15.0,-,N/A,,Overcast,120,2012-12-05 06:53:00